ICEYE-X42

导读

ICEYE-X42是芬兰ICEYE公司冰眼卫星星座的一员,于2025年1月14日在美国发射入轨。作为X波段合成孔径雷达卫星,它具备全天时、全天候高分辨率对地观测能力,可提供最高米级精度遥感影像,支持灾害监测、海事监管、保险定损等多领域应用,进一步扩展了ICEYE全球重访覆盖能力,助力近实时地球观测服务。

基本信息
目录编号:
62698
目录名称:
ICEYE-X42
国际标识:
2025-009CT
轨道中心:
EARTH
卫星名称:
ICEYE-X42
卫星全名:
ICEYE-X42
卫星状态:
在轨 (已飞行559 天)
发射日期:
2025-01-14 UTC
国别 :
(AE)
星等 :
--
轨道信息
数据来源 国际轨道数据 AOE轨道数据
星历时间 2026-07-27T15:35:33+0800
14小时前
查看轨道信息
2026-07-23T01:00:00+0800
5天前
查看轨道信息
半长轴 6970.266km 6970.36km
偏心率 0.0001375 0.0001681
轨道倾角 97.739° 97.738°
近地点辐角 101.540° 115.964°
升交点赤经 285.906° 281.381°
平近点角 258.598° 351.357°
近地点 591.17km 591.051km
远地点 593.088km 593.395km
周期 96.524分钟 96.526分钟
每日圈数 14.918626 14.918324
详细信息
使用方式:
暂无
2D轨道图
3D轨道图
轨道高度分析图
轨道倾角分析图
轨道综合分析图
查看轨道综合分析图